Location: El Gallo
(32.4380°N, 116.9347°W)
Time: 19:33:32
(UTC+00:00)

Cosmos 1707 Rocket - Pass Details

Date: 01 October 2022
Orbit: 605 x 630 km, 82.5° (Epoch: 02 December)

Event Time Altitude Azimuth Distance (km) Brightness Sun altitude
Rises 12:49:24 0° 177° (S) 2,870 7.0 -11.9°
Reaches altitude 10° 12:51:38 10° 174° (S) 1,965 6.2 -11.4°
Maximum altitude 12:55:55 62° 94° (E) 686 4.1 -10.5°
Drops below altitude 10° 13:00:13 10° 14° (NNE) 1,965 6.3 -9.6°
Sets 13:02:27 0° 11° (N) 2,869 7.2 -9.1°
